Wind_Speed
22 22 22 23 24 25 25 26 26 27 28 28 29 30 31 32 33 34 35 35 37 38 38 39 39 40 40 40 41 42 43 44 45 45 46 48 48 49 50 51 52 52 52 52
22 23 24 24 25 26 27 27 28 28 29 30 30 31 32 33 33 33 34 35 36 37 38 38 39 40 40 41 42 43 43 43 44 46 47 47 48 49 50 51 52 52 52 53
24 24 24 25 26 27 28 29 29 30 30 31 32 32 33 33 33 34 34 35 36 37 37 38 38 39 40 41 42 43 44 44 45 46 46 47 49 49 49 50 51 52 53 53
25 25 26 27 28 28 29 29 30 31 32 32 33 34 33 33 33 34 34 35 35 36 37 38 38 39 40 41 42 44 45 45 45 46 48 47 48 50 50 51 51 51 52 52
26 27 27 28 28 29 29 30 31 32 32 32 33 35 33 33 34 34 34 35 35 36 37 38 39 40 41 42 43 44 45 46 47 47 48 49 49 50 50 51 51 51 51 52
27 28 28 28 29 29 30 31 33 33 33 33 33 35 35 34 34 34 34 35 35 37 38 39 40 41 42 43 44 45 46 47 48 48 48 48 49 49 50 50 51 51 51 51
28 28 29 29 29 30 31 33 34 35 35 35 35 36 36 35 35 35 36 36 36 37 39 40 41 43 44 45 45 45 46 47 48 49 49 48 49 49 49 49 50 51 51 51
30 29 30 30 31 32 32 33 34 36 36 37 36 36 35 36 35 35 36 37 37 38 39 41 42 43 44 45 46 46 47 47 48 48 48 48 48 48 48 48 49 50 51 51
31 31 31 32 32 33 33 34 34 36 37 38 37 37 36 36 36 37 37 37 38 38 39 40 41 43 44 45 46 46 46 47 47 47 47 47 47 48 48 48 48 48 49 50
32 33 32 33 34 34 34 34 35 35 37 38 38 37 37 36 37 37 37 38 38 38 39 40 40 42 43 44 44 44 44 45 45 46 46 46 47 47 47 46 47 48 49 49
34 34 34 34 34 34 34 34 34 35 36 37 38 37 37 37 38 38 38 39 39 39 39 40 40 41 43 43 43 43 43 43 44 45 45 46 47 47 48 48 47 47 48 49
35 35 35 35 35 35 34 34 35 35 36 37 38 39 38 38 39 39 40 40 40 40 40 41 42 42 42 43 43 42 43 43 43 44 44 45 46 46 47 48 48 47 47 48
36 36 36 35 35 35 35 35 35 36 37 37 38 38 38 39 39 39 40 41 41 41 42 42 43 42 42 43 43 43 43 43 43 44 44 44 44 44 45 46 47 47 47 47
35 36 35 36 36 36 36 35 35 36 37 38 38 38 38 39 40 40 40 41 41 42 42 42 43 43 43 43 43 43 43 43 43 43 43 43 43 43 43 44 45 46 45 45
36 36 36 36 36 36 36 35 36 36 37 39 39 39 39 40 41 41 41 41 42 42 42 42 42 42 43 43 43 43 43 43 43 42 42 42 42 42 42 43 44 44 44 44
37 37 36 35 35 36 36 36 36 37 38 40 40 40 40 41 41 40 41 42 42 42 42 42 43 43 43 43 43 42 43 42 42 42 41 41 40 41 41 42 42 42 43 44
37 37 37 36 36 37 36 36 37 39 39 40 41 40 40 41 40 41 42 41 41 41 42 43 43 43 43 43 43 42 41 41 41 41 40 40 39 40 40 40 40 41 42 42
36 36 37 38 38 38 38 38 38 39 40 40 40 40 40 40 41 41 42 42 42 42 43 43 43 43 43 42 41 41 40 40 39 39 39 38 39 39 39 39 39 40 40 41
36 37 38 39 39 40 38 39 40 40 39 40 40 40 40 40 41 41 42 42 42 42 42 42 42 42 42 41 40 39 38 38 38 37 37 38 38 39 38 39 39 39 39 39
37 38 39 40 41 41 40 40 40 41 40 39 39 39 40 40 40 39 40 41 41 41 42 42 41 41 41 41 40 39 37 37 36 36 36 37 37 37 38 38 38 37 37 37
38 39 39 40 41 41 41 40 40 39 40 39 39 39 39 39 39 39 40 41 41 42 42 41 40 40 40 39 38 37 36 36 34 33 34 34 35 34 34 34 34 34 35 35
38 39 40 40 41 40 39 40 40 40 40 40 39 39 39 39 39 40 40 41 41 41 41 40 39 39 38 37 36 35 35 34 32 30 31 32 32 31 31 32 32 32 32 33
39 39 40 39 39 40 39 40 40 40 39 39 38 38 38 39 39 39 40 41 41 41 40 39 39 38 37 37 36 35 34 33 31 29 29 29 29 29 29 30 31 31 31 31
38 38 39 38 38 39 39 40 40 39 39 38 38 38 38 38 39 39 40 40 40 39 39 38 38 38 37 37 35 34 33 31 30 28 28 28 28 28 28 29 30 30 30 30
37 37 37 37 38 38 39 40 40 39 38 38 38 38 38 39 39 40 39 39 39 38 38 38 37 37 37 36 35 33 31 30 28 28 28 28 28 28 28 28 28 29 29 29
36 36 36 37 38 38 39 39 39 39 38 38 38 39 39 40 40 40 39 39 38 38 37 37 37 36 35 34 33 32 30 29 28 27 28 27 27 27 27 27 26 27 27 28
Wind_Direction
305 303 304 303 300 299 299 298 298 298 296 292 290 289 289 287 286 284 282 280 277 276 276 275 273 271 271 269 268 267 266 266 266 265 265 263 263 262 261 260 261 261 261 261
303 303 305 302 301 301 301 301 300 298 297 295 293 291 291 290 288 286 283 282 280 278 277 275 274 273 271 271 269 268 268 267 267 267 266 265 264 263 262 261 261 261 261 260
304 304 305 304 302 302 302 302 302 301 299 296 295 293 293 291 288 286 283 283 281 279 278 277 276 275 273 272 271 270 269 268 269 268 268 266 265 265 263 262 262 262 261 261
303 304 304 304 302 302 302 303 302 302 301 299 297 295 293 291 288 287 285 284 283 281 279 278 277 276 275 274 273 272 271 270 270 269 268 267 266 264 263 263 263 262 261 260
303 303 304 305 304 302 302 303 303 302 301 300 299 296 296 294 291 289 287 286 285 283 281 279 278 278 277 276 275 274 273 273 272 270 269 268 268 267 265 263 262 261 261 260
303 302 303 304 304 303 302 303 303 302 302 301 301 299 298 297 294 291 289 289 288 286 284 282 280 280 279 278 278 277 276 275 274 272 270 269 269 268 267 264 261 261 260 259
303 302 302 303 304 304 303 303 303 303 303 303 303 301 302 301 298 294 291 292 291 288 286 283 283 282 281 280 280 279 277 276 275 273 272 270 270 269 267 264 262 261 260 259
303 302 303 304 305 305 305 304 304 304 303 303 302 301 302 302 300 296 293 293 292 289 287 285 284 284 283 282 281 280 278 276 275 274 272 271 271 270 267 265 263 261 260 259
304 303 303 304 305 305 304 304 304 303 303 303 302 302 302 303 301 297 294 294 294 291 289 288 287 286 285 283 283 282 279 276 275 274 273 271 271 270 268 266 264 262 261 260
302 302 303 303 303 303 303 304 304 304 303 304 304 304 303 304 302 298 296 296 296 293 291 289 289 288 287 286 284 283 282 278 276 274 273 272 270 269 268 267 265 264 262 261
301 301 302 302 303 303 303 303 303 302 302 303 303 304 305 303 301 298 297 296 296 295 293 291 291 290 289 289 287 285 283 280 277 275 274 272 271 270 268 267 266 265 264 263
301 300 301 302 301 301 302 301 301 301 301 300 300 302 303 302 301 298 297 295 296 296 294 294 293 293 292 291 290 288 285 282 279 277 275 273 272 270 269 268 266 266 265 263
300 301 301 301 302 301 300 300 300 299 299 300 300 302 302 301 301 300 299 297 297 296 295 295 294 295 295 293 291 289 288 285 281 279 277 274 272 271 269 268 266 266 265 264
299 300 301 302 302 301 300 300 298 298 299 300 301 301 301 301 300 300 300 299 298 298 297 296 297 296 295 294 292 291 289 287 283 280 278 275 273 272 269 268 268 267 265 264
299 300 301 301 299 298 299 299 297 297 298 299 300 300 301 300 299 299 300 300 299 299 298 298 297 297 295 295 293 291 289 287 284 280 278 276 274 272 271 269 268 267 265 264
299 300 300 300 299 298 299 299 298 298 298 298 299 300 300 300 300 300 300 301 300 300 300 299 299 298 297 295 294 293 290 287 285 282 279 276 274 273 271 270 269 267 266 264
299 299 300 300 300 299 299 301 300 298 299 299 300 301 300 300 300 300 301 301 301 301 302 302 301 299 298 297 295 293 290 287 284 282 279 277 275 273 272 271 271 269 267 265
297 298 299 299 300 299 302 301 300 300 300 300 300 300 300 300 300 301 302 302 302 302 303 304 302 301 299 297 296 296 292 288 286 283 280 279 276 275 275 274 273 271 269 266
296 297 298 299 299 300 302 302 302 301 301 300 300 300 299 300 300 301 302 302 303 303 303 304 304 303 301 299 297 297 295 291 288 284 281 280 278 276 275 275 274 272 271 268
294 295 296 298 299 300 303 303 303 302 301 302 301 301 301 301 301 301 301 302 303 303 304 304 304 304 302 300 298 297 296 294 290 286 283 281 280 277 275 274 273 272 271 270
294 296 297 298 299 300 303 303 303 302 303 302 301 301 301 301 302 302 302 303 303 304 304 304 304 304 303 301 299 299 297 296 292 287 285 283 281 279 277 275 273 272 272 270
296 298 298 299 299 302 302 301 302 302 301 301 301 301 302 302 303 304 305 305 305 305 305 304 303 304 304 302 301 300 299 298 295 290 287 286 284 281 279 277 274 274 273 271
296 297 298 298 299 300 301 301 302 302 301 301 301 302 303 303 304 304 305 305 305 305 305 304 303 304 304 303 302 301 300 299 296 294 292 290 286 283 281 278 275 274 273 272
295 297 297 297 298 299 299 300 301 302 302 302 302 302 303 304 304 304 305 305 305 305 305 304 304 304 303 303 302 302 301 299 297 295 294 293 289 284 281 279 276 274 273 272
295 297 298 298 299 298 299 300 301 301 301 301 302 302 303 305 305 305 305 305 305 305 305 304 304 304 304 303 302 301 301 300 298 296 295 293 290 287 284 281 278 275 273 272
294 296 298 299 299 298 299 299 299 300 300 300 301 303 303 304 305 305 305 305 305 305 305 305 305 305 304 304 303 302 300 299 298 296 295 294 292 289 285 283 281 277 273 270
Height
5767 5766 5763 5760 5757 5754 5751 5749 5746 5743 5739 5737 5735 5733 5730 5727 5725 5723 5721 5719 5717 5715 5713 5712 5710 5709 5709 5708 5707 5706 5705 5705 5705 5705 5705 5705 5705 5706 5707 5707 5708 5709 5710 5711
5763 5760 5757 5753 5750 5748 5744 5741 5738 5736 5732 5729 5726 5724 5722 5719 5716 5713 5711 5708 5706 5704 5703 5701 5699 5698 5697 5696 5695 5694 5693 5693 5692 5692 5692 5692 5692 5693 5693 5694 5694 5695 5696 5697
5757 5755 5751 5748 5745 5741 5738 5735 5731 5728 5724 5721 5717 5715 5713 5710 5706 5703 5701 5698 5696 5694 5692 5691 5689 5687 5685 5684 5683 5682 5681 5680 5679 5679 5679 5678 5678 5679 5680 5680 5680 5680 5681 5682
5750 5748 5745 5741 5738 5734 5731 5728 5724 5720 5716 5713 5709 5705 5704 5700 5697 5694 5692 5689 5686 5684 5682 5680 5678 5676 5674 5672 5671 5669 5668 5667 5666 5665 5665 5665 5665 5665 5665 5665 5666 5666 5666 5667
5744 5741 5738 5735 5731 5727 5724 5720 5716 5712 5707 5704 5701 5696 5695 5691 5688 5685 5682 5679 5676 5673 5671 5669 5667 5665 5662 5660 5659 5657 5656 5654 5653 5652 5651 5651 5650 5650 5650 5651 5651 5651 5652 5653
5737 5734 5731 5727 5724 5720 5716 5712 5708 5704 5699 5696 5693 5687 5684 5682 5678 5675 5672 5669 5666 5663 5660 5658 5655 5653 5650 5648 5646 5644 5642 5641 5639 5638 5637 5636 5636 5636 5636 5636 5636 5637 5638 5639
5730 5727 5723 5720 5716 5713 5709 5705 5699 5694 5690 5687 5683 5678 5676 5673 5669 5665 5662 5659 5655 5652 5649 5646 5643 5641 5638 5635 5633 5630 5628 5627 5625 5624 5623 5622 5621 5621 5621 5621 5622 5623 5624 5625
5722 5720 5716 5712 5708 5704 5700 5696 5692 5686 5682 5678 5674 5670 5668 5664 5659 5655 5652 5648 5645 5641 5638 5635 5631 5628 5625 5622 5620 5617 5615 5613 5611 5610 5609 5608 5607 5607 5607 5607 5607 5608 5609 5610
5713 5711 5708 5704 5699 5696 5691 5687 5683 5678 5672 5668 5665 5662 5659 5654 5650 5646 5641 5638 5634 5630 5627 5623 5620 5616 5613 5610 5607 5604 5601 5600 5598 5596 5595 5594 5593 5593 5593 5593 5593 5593 5594 5595
5705 5702 5700 5696 5691 5687 5683 5679 5674 5669 5663 5659 5656 5653 5649 5644 5640 5636 5632 5628 5623 5620 5616 5612 5608 5605 5601 5598 5594 5591 5588 5586 5584 5583 5582 5581 5580 5579 5578 5578 5578 5578 5579 5580
5697 5694 5691 5687 5682 5679 5675 5670 5665 5660 5655 5651 5646 5646 5640 5635 5630 5626 5622 5618 5613 5609 5605 5601 5597 5593 5590 5586 5582 5579 5576 5573 5571 5569 5568 5567 5566 5565 5564 5564 5564 5564 5564 5565
5688 5684 5681 5678 5674 5669 5665 5661 5657 5653 5648 5642 5637 5638 5631 5626 5620 5616 5612 5607 5603 5599 5595 5590 5586 5582 5578 5574 5570 5567 5563 5561 5558 5556 5554 5553 5552 5550 5550 5549 5549 5549 5549 5550
5678 5675 5671 5668 5666 5661 5656 5652 5648 5643 5639 5634 5629 5629 5621 5616 5611 5607 5602 5598 5593 5589 5584 5580 5575 5571 5567 5562 5559 5555 5551 5548 5545 5543 5541 5539 5538 5536 5536 5535 5535 5535 5535 5536
5669 5666 5663 5660 5655 5651 5647 5643 5638 5634 5629 5625 5621 5618 5613 5606 5602 5597 5593 5588 5583 5578 5574 5569 5564 5560 5555 5551 5547 5543 5539 5535 5532 5530 5527 5526 5524 5523 5522 5522 5521 5521 5521 5522
5660 5657 5653 5650 5645 5641 5638 5634 5630 5625 5620 5616 5612 5607 5603 5597 5592 5587 5582 5577 5573 5568 5563 5558 5553 5548 5544 5539 5534 5530 5526 5523 5519 5517 5515 5513 5511 5510 5509 5508 5508 5507 5507 5508
5651 5648 5644 5640 5636 5632 5628 5625 5620 5616 5611 5606 5601 5597 5592 5587 5581 5577 5572 5567 5562 5557 5552 5547 5542 5537 5532 5527 5522 5518 5514 5510 5507 5504 5502 5500 5499 5498 5496 5495 5494 5494 5494 5494
5641 5638 5634 5631 5627 5622 5619 5616 5611 5606 5601 5596 5591 5588 5582 5577 5572 5567 5562 5557 5552 5546 5541 5536 5531 5525 5520 5515 5510 5506 5501 5498 5494 5492 5489 5488 5486 5485 5484 5483 5482 5481 5481 5481
5632 5627 5623 5620 5617 5612 5612 5606 5601 5596 5591 5586 5581 5576 5571 5566 5561 5556 5551 5546 5541 5536 5531 5525 5519 5514 5508 5503 5498 5493 5489 5485 5482 5479 5477 5475 5474 5473 5471 5470 5469 5468 5468 5468
5622 5618 5614 5610 5605 5602 5601 5596 5590 5585 5581 5576 5571 5566 5561 5556 5551 5547 5541 5536 5531 5525 5520 5514 5508 5503 5497 5492 5487 5482 5478 5474 5470 5467 5465 5464 5462 5460 5459 5458 5457 5456 5455 5455
5612 5608 5605 5600 5595 5591 5591 5585 5579 5575 5571 5566 5561 5556 5551 5546 5542 5538 5531 5526 5520 5515 5509 5504 5498 5492 5486 5481 5476 5471 5467 5463 5459 5456 5454 5452 5450 5449 5447 5446 5445 5444 5444 5443
5602 5598 5595 5590 5584 5581 5579 5573 5568 5565 5562 5555 5550 5545 5541 5536 5532 5527 5521 5516 5510 5504 5499 5493 5487 5481 5476 5471 5466 5461 5457 5453 5449 5446 5444 5441 5440 5438 5436 5435 5434 5433 5432 5432
5591 5588 5584 5579 5575 5574 5568 5563 5559 5555 5550 5545 5540 5535 5531 5526 5521 5516 5511 5505 5500 5494 5489 5483 5477 5472 5466 5461 5456 5452 5447 5443 5439 5436 5434 5432 5430 5428 5426 5425 5424 5423 5422 5422
5581 5578 5573 5570 5568 5562 5557 5553 5549 5544 5540 5535 5530 5526 5521 5516 5511 5506 5501 5495 5490 5484 5479 5473 5468 5463 5457 5452 5447 5443 5438 5434 5431 5428 5425 5423 5421 5419 5417 5416 5415 5414 5412 5412
5571 5567 5563 5560 5556 5552 5547 5542 5538 5534 5529 5525 5520 5516 5511 5506 5501 5496 5491 5485 5480 5474 5469 5464 5459 5454 5449 5443 5438 5434 5430 5426 5423 5420 5417 5414 5412 5410 5408 5407 5405 5404 5403 5402
5561 5557 5553 5549 5546 5542 5538 5533 5529 5524 5519 5515 5510 5506 5501 5496 5491 5486 5481 5475 5470 5465 5460 5455 5450 5445 5440 5435 5430 5426 5422 5418 5415 5412 5409 5407 5404 5402 5400 5398 5396 5395 5394 5393
5551 5548 5544 5540 5536 5532 5528 5523 5519 5514 5510 5505 5501 5496 5491 5486 5481 5476 5471 5465 5460 5455 5450 5445 5440 5435 5431 5426 5421 5418 5414 5411 5408 5405 5402 5399 5396 5394 5392 5390 5388 5386 5385 5384